�N����,����,�~����,�C��,���x,�C��,����,���ϕ���,�ő�u�ԕ���,�ő厞����,���˗�,�I�_���x,�n�����x,�ő啗���N��,DTYPE
"23/09/20","00:10",0.0,24.9,87.4,1008.6,324.4,1.0,2.1,330.5,0.00,22.7,25.8,"00:05:20",1
"23/09/20","00:20",0.0,25.0,87.7,1008.6,345.3,0.7,1.3,329.5,0.00,22.9,25.7,"00:10:08",1
"23/09/20","00:30",0.0,25.0,87.8,1008.6,312.9,0.8,1.2,331.9,0.00,22.9,25.6,"00:21:36",1
"23/09/20","00:40",0.0,25.0,88.0,1008.6,310.9,0.7,1.6,249.6,0.00,22.9,25.7,"00:33:36",1
"23/09/20","00:50",0.0,25.0,88.1,1008.6,335.0,0.7,1.3,333.6,0.00,22.9,25.6,"00:44:56",1
"23/09/20","01:00",0.0,24.9,88.2,1008.1,347.9,0.3,1.4,329.1,0.00,22.9,25.7,"00:52:32",1
"23/09/20","01:10",0.0,24.6,88.3,1008.3,308.1,0.3,0.9,327.8,0.00,22.6,25.6,"01:07:52",1
"23/09/20","01:20",0.0,24.5,88.6,1008.1,337.4,0.5,1.0,330.2,0.00,22.5,25.7,"01:15:20",1
"23/09/20","01:30",0.0,24.5,89.1,1008.1,331.7,1.0,1.7,343.6,0.00,22.6,25.6,"01:28:40",1
"23/09/20","01:40",0.0,24.3,89.5,1008.3,256.5,0.6,1.2,316.5,0.00,22.5,25.4,"01:39:52",1
"23/09/20","01:50",0.0,24.4,89.9,1008.6,337.2,1.0,1.6,329.2,0.00,22.7,25.3,"01:42:00",1
"23/09/20","02:00",0.0,24.3,90.1,1008.8,332.8,1.2,1.9,339.2,0.00,22.6,25.5,"01:57:44",1
"23/09/20","02:10",0.0,24.0,90.4,1008.3,290.5,0.3,0.8,288.9,0.00,22.4,25.6,"02:09:28",1
"23/09/20","02:20",0.0,24.2,90.7,1008.3,303.9,1.0,1.9,324.1,0.00,22.6,25.4,"02:18:08",1
"23/09/20","02:30",0.0,24.4,90.9,1008.6,306.1,1.1,2.0,335.4,0.00,22.9,25.4,"02:20:24",1
"23/09/20","02:40",0.0,24.5,91.0,1008.8,277.7,0.7,1.2,306.5,0.00,23.0,25.5,"02:30:56",1
"23/09/20","02:50",0.0,24.6,91.0,1008.3,285.3,0.3,1.0,257.2,0.00,23.1,25.3,"02:41:20",1
"23/09/20","03:00",0.0,24.6,91.1,1008.6,27.8,0.5,1.6,332.4,0.00,23.1,25.6,"02:58:56",1
"23/09/20","03:10",0.0,24.6,91.1,1008.6,284.3,0.5,1.4,321.9,0.00,23.1,25.4,"03:02:08",1
"23/09/20","03:20",0.0,24.5,91.1,1008.6,299.6,0.6,1.1,319.6,0.00,23.0,25.4,"03:12:32",1
"23/09/20","03:30",0.0,24.4,91.2,1008.3,325.5,0.8,1.4,337.0,0.00,22.9,25.2,"03:24:00",1
"23/09/20","03:40",0.0,24.4,91.3,1007.8,290.8,0.6,1.6,302.8,0.00,22.9,25.6,"03:32:56",1
"23/09/20","03:50",0.0,24.4,91.3,1008.3,310.3,1.0,1.8,320.4,0.00,22.9,25.3,"03:44:24",1
"23/09/20","04:00",0.0,24.5,91.3,1007.8,264.4,0.6,1.0,258.4,0.00,23.0,25.3,"03:51:36",1
"23/09/20","04:10",0.0,24.4,91.3,1008.1,284.4,0.5,1.3,313.9,0.00,22.9,25.2,"04:02:00",1
"23/09/20","04:20",0.0,24.4,91.3,1007.8,292.2,0.3,0.8,268.9,0.00,22.9,25.6,"04:18:48",1
"23/09/20","04:30",0.0,24.2,91.3,1007.8,267.3,0.2,0.6,266.4,0.00,22.7,25.3,"04:28:16",1
"23/09/20","04:40",0.0,24.3,91.4,1008.1,318.7,1.0,1.4,323.5,0.00,22.8,25.1,"04:36:40",1
"23/09/20","04:50",0.0,24.4,91.4,1008.1,335.1,0.2,0.9,126.2,0.00,22.9,25.4,"04:46:56",1
"23/09/20","05:00",0.0,24.3,91.4,1007.8,288.8,0.6,0.9,271.0,0.00,22.8,25.3,"04:53:36",1
"23/09/20","05:10",0.0,24.2,91.5,1008.1,328.5,0.6,1.2,336.9,0.00,22.8,25.2,"05:02:16",1
"23/09/20","05:20",0.0,24.2,91.5,1007.8,257.4,0.5,0.8,273.1,0.00,22.8,25.3,"05:14:16",1
"23/09/20","05:30",0.0,23.9,91.6,1008.3,309.0,0.6,1.0,331.8,0.00,22.5,25.2,"05:28:48",1
"23/09/20","05:40",0.0,23.9,91.7,1007.8,300.8,0.7,1.1,316.8,0.00,22.5,25.2,"05:37:36",1
"23/09/20","05:50",0.0,23.9,91.8,1008.3,311.3,0.8,1.4,328.9,0.00,22.5,25.3,"05:42:16",1
"23/09/20","06:00",0.0,23.7,91.8,1007.8,297.8,0.5,0.9,302.5,0.00,22.3,25.1,"05:52:24",1
"23/09/20","06:10",0.0,23.7,92.0,1008.3,289.8,0.7,1.1,323.6,0.00,22.4,25.3,"06:09:44",1
"23/09/20","06:20",0.0,23.8,92.1,1008.1,321.1,0.8,1.2,327.5,0.00,22.5,25.1,"06:13:12",1
"23/09/20","06:30",0.0,23.7,92.2,1007.8,312.5,0.7,1.1,313.0,0.00,22.4,25.1,"06:25:52",1
"23/09/20","06:40",0.0,23.9,92.3,1008.1,261.6,0.6,1.4,241.2,0.00,22.6,25.0,"06:39:28",1
"23/09/20","06:50",0.0,24.3,92.4,1008.6,270.3,0.8,1.6,249.4,0.03,23.0,25.2,"06:42:24",1
"23/09/20","07:00",0.0,24.9,92.3,1008.3,281.5,0.8,1.3,260.2,0.08,23.6,25.2,"06:57:28",1
"23/09/20","07:10",0.0,25.4,91.8,1008.3,336.6,0.8,1.8,343.7,0.08,24.0,25.2,"07:04:40",1
"23/09/20","07:20",0.0,25.8,91.3,1008.3,317.7,0.3,1.1,339.1,0.03,24.3,25.2,"07:11:52",1
"23/09/20","07:30",0.0,25.8,91.1,1008.6,182.1,0.2,0.6,132.8,0.03,24.3,25.2,"07:26:40",1
"23/09/20","07:40",0.0,25.8,90.6,1008.6,283.9,0.3,1.2,351.6,0.06,24.2,25.2,"07:38:32",1
"23/09/20","07:50",0.0,26.2,90.1,1008.1,291.5,0.6,1.2,338.9,0.08,24.5,25.1,"07:40:40",1
"23/09/20","08:00",0.0,26.3,88.9,1008.1,291.5,0.3,1.1,336.6,0.10,24.4,25.2,"07:58:24",1
"23/09/20","08:10",0.0,26.8,87.3,1007.8,306.5,0.3,1.2,348.9,0.10,24.6,25.3,"08:01:04",1
"23/09/20","08:20",0.0,27.0,85.3,1008.1,214.8,0.3,0.9,240.8,0.09,24.4,25.4,"08:18:40",1
"23/09/20","08:30",0.0,27.4,83.9,1007.8,161.5,0.3,1.0,120.2,0.11,24.5,25.4,"08:25:44",1
"23/09/20","08:40",0.0,27.7,82.2,1007.1,168.0,0.3,1.1,127.8,0.12,24.4,25.2,"08:31:12",1
"23/09/20","08:50",0.0,27.9,81.0,1007.4,235.5,0.1,0.6,132.6,0.09,24.4,25.3,"08:40:16",1
"23/09/20","09:00",0.0,28.3,79.7,1008.1,289.8,0.6,2.2,234.4,0.20,24.5,25.5,"08:59:20",1
"23/09/20","09:10",0.0,28.7,77.5,1007.8,198.4,1.0,2.7,218.4,0.28,24.4,25.4,"09:09:12",1
"23/09/20","09:20",0.0,29.0,76.1,1008.6,211.1,1.1,2.7,217.9,0.22,24.4,25.5,"09:13:44",1
"23/09/20","09:30",0.0,29.1,76.1,1008.8,191.2,0.8,1.7,125.2,0.18,24.5,25.5,"09:22:16",1
"23/09/20","09:40",0.0,29.2,76.4,1008.6,165.9,1.0,2.5,218.1,0.19,24.7,25.6,"09:35:28",1
"23/09/20","09:50",0.0,29.4,75.2,1008.8,180.0,1.0,2.4,213.4,0.18,24.6,25.5,"09:42:40",1
"23/09/20","10:00",0.0,29.6,75.2,1008.8,154.4,1.0,2.2,113.0,0.21,24.8,25.6,"09:51:52",1
"23/09/20","10:10",0.0,29.9,74.1,1009.3,135.9,1.0,2.5,158.2,0.26,24.8,25.6,"10:00:02",1
"23/09/20","10:20",0.0,29.8,73.8,1009.0,171.5,1.3,3.3,206.2,0.29,24.7,25.6,"10:17:20",1
"23/09/20","10:30",0.0,30.1,74.0,1008.6,183.4,1.7,3.9,224.8,0.31,25.0,25.6,"10:24:32",1
"23/09/20","10:40",0.0,29.8,72.0,1008.8,203.4,1.7,3.4,223.5,0.28,24.2,25.7,"10:32:56",1
"23/09/20","10:50",0.0,29.9,72.3,1008.6,143.0,1.2,2.1,155.5,0.19,24.4,25.9,"10:45:36",1
"23/09/20","11:00",0.0,29.8,72.1,1008.1,179.3,0.8,3.4,214.5,0.12,24.3,25.9,"10:54:48",1
"23/09/20","11:10",0.0,29.7,73.0,1007.8,182.6,0.7,2.2,157.8,0.10,24.4,26.1,"11:08:32",1
"23/09/20","11:20",0.0,29.4,73.8,1007.4,163.6,1.5,3.2,199.0,0.10,24.3,26.0,"11:11:20",1
"23/09/20","11:30",0.0,29.5,74.1,1007.1,182.1,1.3,4.2,225.2,0.12,24.4,26.0,"11:26:00",1
"23/09/20","11:40",0.0,29.8,73.0,1007.1,156.8,1.2,2.9,149.7,0.16,24.5,26.0,"11:35:44",1
"23/09/20","11:50",0.0,29.5,73.3,1006.9,169.7,1.1,2.9,200.7,0.07,24.3,25.8,"11:43:20",1
"23/09/20","12:00",0.0,29.2,73.3,1006.4,160.4,0.5,1.2,181.7,0.04,24.0,26.0,"11:51:44",1
"23/09/20","12:10",0.0,29.2,75.7,1006.0,359.9,1.0,2.1,345.3,0.04,24.5,26.1,"12:03:20",1
"23/09/20","12:20",0.0,28.3,78.7,1005.7,338.8,1.3,2.7,349.2,0.05,24.3,26.2,"12:14:32",1
"23/09/20","12:30",0.0,28.1,80.4,1005.0,355.5,1.3,3.2,350.3,0.04,24.4,26.0,"12:24:48",1
"23/09/20","12:40",0.0,28.1,81.3,1004.8,355.5,1.0,2.5,346.9,0.02,24.6,26.0,"12:38:32",1
"23/09/20","12:50",0.0,27.9,82.3,1005.2,356.2,0.8,1.9,351.1,0.00,24.6,26.1,"12:42:24",1
"23/09/20","13:00",0.0,27.6,83.1,1005.2,343.7,0.5,1.4,337.9,0.01,24.5,26.0,"12:58:40",1
"23/09/20","13:10",0.0,27.6,84.0,1005.2,343.0,1.0,1.9,352.3,0.01,24.7,26.1,"13:09:20",1
"23/09/20","13:20",0.8,27.3,85.2,1005.5,341.3,1.1,2.2,340.9,0.00,24.6,26.1,"13:12:00",1
"23/09/20","13:30",3.6,26.3,86.7,1006.2,318.0,2.0,7.7,1.4,0.03,23.9,25.9,"13:25:38",1
"23/09/20","13:40",1.0,26.1,88.3,1006.2,330.2,1.7,3.5,338.9,0.14,24.1,26.0,"13:34:48",1
"23/09/20","13:50",0.0,26.5,89.1,1005.7,3.1,0.5,1.9,346.3,0.21,24.6,26.1,"13:40:24",1
"23/09/20","14:00",0.0,26.9,88.5,1005.7,44.9,0.6,2.4,56.4,0.34,24.9,26.1,"13:50:02",1
"23/09/20","14:10",0.0,26.2,88.5,1006.2,354.0,1.1,3.3,26.4,0.11,24.2,25.9,"14:00:32",1
"23/09/20","14:20",0.0,26.4,88.2,1005.7,342.4,1.1,2.6,341.0,0.11,24.3,25.9,"14:13:04",1
"23/09/20","14:30",0.0,26.4,88.0,1006.0,336.8,1.2,2.4,359.9,0.12,24.3,26.0,"14:26:00",1
"23/09/20","14:40",0.0,26.5,87.5,1005.7,353.9,1.0,2.6,344.3,0.12,24.3,25.9,"14:33:28",1
"23/09/20","14:50",0.0,26.6,87.6,1005.7,349.8,1.1,2.4,358.4,0.10,24.4,26.2,"14:47:12",1
"23/09/20","15:00",0.0,26.7,87.5,1006.0,344.8,0.8,2.1,351.5,0.09,24.5,26.2,"14:54:16",1
"23/09/20","15:10",0.0,26.7,87.3,1006.0,0.5,1.0,1.9,19.8,0.07,24.5,26.2,"15:01:44",1
"23/09/20","15:20",0.0,26.5,86.7,1006.0,9.9,1.2,2.8,27.1,0.07,24.1,26.2,"15:11:12",1
"23/09/20","15:30",0.0,26.7,86.3,1006.0,339.0,1.0,1.9,335.8,0.08,24.3,26.1,"15:25:20",1
"23/09/20","15:40",0.0,26.8,86.0,1006.0,339.5,1.1,2.4,341.0,0.07,24.3,26.1,"15:32:48",1
"23/09/20","15:50",0.0,27.2,85.9,1005.5,346.3,0.7,1.6,351.1,0.11,24.7,26.3,"15:40:08",1
"23/09/20","16:00",0.0,27.8,84.8,1005.2,315.1,0.5,1.9,325.0,0.15,25.0,26.0,"15:52:08",1
"23/09/20","16:10",0.0,28.0,82.7,1005.2,285.9,0.5,0.9,347.0,0.09,24.8,26.0,"16:01:44",1
"23/09/20","16:20",0.0,28.1,81.5,1005.2,285.5,0.3,1.0,342.1,0.07,24.7,26.2,"16:19:20",1
"23/09/20","16:30",0.0,28.3,80.5,1005.2,330.9,0.6,1.3,346.0,0.05,24.7,26.2,"16:29:28",1
"23/09/20","16:40",0.0,27.9,80.6,1005.5,340.1,0.8,1.3,332.2,0.04,24.3,26.2,"16:30:48",1
"23/09/20","16:50",0.0,27.8,81.1,1005.5,342.3,0.5,1.3,341.4,0.03,24.3,26.3,"16:40:48",1
"23/09/20","17:00",0.0,27.8,82.2,1005.7,333.7,1.0,1.6,345.0,0.02,24.5,26.1,"16:55:36",1
"23/09/20","17:10",0.0,27.4,83.3,1005.5,323.8,0.7,1.3,342.9,0.02,24.4,26.1,"17:04:24",1
"23/09/20","17:20",0.0,27.1,84.4,1006.0,327.9,0.7,1.3,348.4,0.01,24.3,26.3,"17:17:12",1
"23/09/20","17:30",0.0,26.8,85.3,1005.5,339.6,1.0,1.4,346.4,0.00,24.2,26.1,"17:21:36",1
"23/09/20","17:40",0.0,26.5,86.1,1006.0,337.0,1.0,1.4,345.4,0.00,24.0,26.2,"17:30:56",1
"23/09/20","17:50",0.0,26.3,87.0,1006.2,342.5,1.0,1.4,346.7,0.00,24.0,26.4,"17:44:24",1
"23/09/20","18:00",0.0,25.9,87.6,1005.7,340.2,0.7,1.4,352.5,0.00,23.7,26.0,"17:52:56",1
"23/09/20","18:10",0.0,25.7,88.3,1006.2,345.1,0.8,1.3,325.6,0.00,23.7,26.2,"18:06:20",1
"23/09/20","18:20",0.0,25.4,88.7,1006.0,196.2,0.1,0.5,175.4,0.00,23.4,26.1,"18:15:36",1
"23/09/20","18:30",0.0,25.3,89.2,1006.4,295.4,0.7,1.2,266.1,0.00,23.4,25.9,"18:21:04",1
"23/09/20","18:40",0.0,25.3,89.7,1006.4,335.0,0.7,1.6,356.7,0.00,23.5,26.0,"18:37:04",1
"23/09/20","18:50",0.0,25.2,90.0,1006.9,325.4,0.6,1.9,353.9,0.00,23.5,26.1,"18:47:44",1
"23/09/20","19:00",0.0,24.9,90.5,1006.7,313.9,0.7,1.7,336.6,0.00,23.3,25.9,"18:50:32",1
"23/09/20","19:10",0.0,24.8,90.8,1006.9,335.2,1.0,1.6,330.5,0.00,23.2,26.1,"19:05:12",1
"23/09/20","19:20",0.0,24.8,91.1,1006.7,333.8,0.7,1.7,300.9,0.00,23.3,26.0,"19:10:16",1
"23/09/20","19:30",0.0,24.7,91.4,1006.7,335.5,0.7,1.1,325.3,0.00,23.2,25.8,"19:29:28",1
"23/09/20","19:40",0.0,24.6,91.7,1006.7,332.2,0.8,1.3,356.6,0.00,23.2,26.0,"19:37:20",1
"23/09/20","19:50",0.0,24.5,91.8,1006.9,313.6,0.8,1.3,311.6,0.00,23.1,25.8,"19:43:04",1
"23/09/20","20:00",0.0,24.5,92.1,1007.1,308.1,0.8,1.6,321.6,0.00,23.2,26.0,"19:57:36",1
"23/09/20","20:10",0.0,24.4,92.3,1007.1,311.6,0.6,1.4,302.3,0.00,23.1,26.0,"20:09:12",1
"23/09/20","20:20",0.0,24.3,92.5,1007.1,336.8,0.8,2.0,342.6,0.00,23.0,25.9,"20:12:16",1
"23/09/20","20:30",0.0,24.2,92.7,1006.9,313.3,0.7,1.2,340.9,0.00,23.0,26.0,"20:29:52",1
"23/09/20","20:40",0.0,24.2,92.9,1007.1,325.4,1.0,1.6,341.6,0.00,23.0,25.8,"20:33:12",1
"23/09/20","20:50",0.0,24.1,93.0,1007.6,308.0,0.7,1.1,336.6,0.00,22.9,25.8,"20:40:08",1
"23/09/20","21:00",0.0,24.2,93.1,1006.9,325.9,0.8,1.4,329.0,0.00,23.1,25.7,"20:57:04",1
"23/09/20","21:10",0.0,24.1,93.2,1007.1,321.0,0.7,1.6,339.7,0.00,23.0,25.6,"21:04:40",1
"23/09/20","21:20",0.0,24.0,93.4,1007.1,308.6,0.8,1.4,339.8,0.00,22.9,25.7,"21:12:24",1
"23/09/20","21:30",0.0,24.0,93.5,1007.4,315.8,0.8,1.3,295.4,0.00,22.9,25.6,"21:20:16",1
"23/09/20","21:40",0.0,24.1,93.5,1007.4,317.2,0.8,1.4,317.0,0.00,23.0,25.7,"21:32:40",1
"23/09/20","21:50",0.0,24.0,93.6,1007.6,321.2,0.8,1.2,336.5,0.00,22.9,25.6,"21:48:08",1
"23/09/20","22:00",0.0,23.9,93.6,1007.6,330.3,0.8,1.3,331.1,0.00,22.8,25.7,"21:53:20",1
"23/09/20","22:10",0.0,23.9,93.8,1007.4,295.3,0.7,1.6,335.6,0.00,22.9,25.7,"22:00:02",1
"23/09/20","22:20",0.0,23.8,93.8,1007.4,291.8,0.5,1.3,338.1,0.00,22.8,25.5,"22:10:08",1
"23/09/20","22:30",0.0,23.8,93.9,1007.1,303.0,0.7,1.6,319.3,0.00,22.8,25.4,"22:28:24",1
"23/09/20","22:40",0.0,23.8,93.9,1006.9,311.3,0.6,1.0,349.6,0.00,22.8,25.7,"22:30:32",1
"23/09/20","22:50",0.0,23.7,94.0,1006.7,287.9,0.6,1.3,266.6,0.00,22.7,25.5,"22:46:56",1
"23/09/20","23:00",0.0,23.8,94.1,1006.9,325.7,1.1,2.0,324.2,0.00,22.8,25.3,"22:50:40",1
"23/09/20","23:10",0.0,23.7,94.0,1007.1,336.8,0.8,1.8,338.7,0.00,22.7,25.5,"23:06:32",1
"23/09/20","23:20",0.0,23.7,94.1,1006.9,310.9,0.7,1.0,332.2,0.00,22.7,25.4,"23:11:28",1
"23/09/20","23:30",0.0,23.7,94.1,1006.7,292.9,0.7,1.2,263.4,0.00,22.7,25.4,"23:26:56",1
"23/09/20","23:40",0.0,23.8,94.2,1006.7,275.3,0.6,1.3,302.5,0.00,22.9,25.5,"23:33:28",1
"23/09/20","23:50",0.0,23.8,94.1,1006.9,304.9,0.7,1.6,330.8,0.00,22.8,25.5,"23:49:44",1
"23/09/20","24:00",0.0,23.8,94.1,1006.7,340.5,0.8,1.7,334.3,0.00,22.8,25.4,"23:54:08",1
